Regional Weather Roundup
Issued by NWS

Home | Current Version | Previous Version | Text Only | Print | Product List | Glossary Off
Versions: 1 2 3 4 5 6 7 8 9 10 11 12 13 14 15 16 17 18 19 20 21 22 23 24 25 26 27 28 29 30 31 32 33 34 35 36 37 38 39 40 41 42 43 44 45 46 47 48 49 50

000
ASUS43 KOAX 290510
RWRNE

WEATHER ROUNDUP FOR NEBRASKA
NATIONAL WEATHER SERVICE OMAHA NE
1100 PM CST WED JAN 28 2015

NOTES: SATELLITE DATA IS BEING USED TO AUGMENT CLOUD COVER ABOVE
       12000 FEET.
       "FAIR" INDICATES FEW OR NO CLOUDS BELOW 12,000 FEET WITH NO
       SIGNIFICANT WEATHER AND/OR OBSTRUCTIONS TO VISIBILITY.

  * THESE STATIONS DO NOT REPORT WEATHER SUCH AS RAIN...SNOW OR FOG.

NEZ001>004-019>022-054>056-290600-
NEBRASKA PANHANDLE

CITY           SKY/WX    TMP DP  RH WIND       PRES   REMARKS
SCOTTSBLUFF    CLOUDY    40  30  67 W9        30.27R WCI  34
ALLIANCE       CLEAR     34  28  79 N13       30.26R WCI  25
CHADRON        MOCLDY    31  27  85 NE6       30.29R WCI  25
KIMBALL        CLOUDY    40  29  64 N17       30.25R WCI  31
SIDNEY         CLOUDY    40  29  64 NW15      30.25R WCI  32
$$

NEZ057>060-069>072-079>082-290600-
SOUTHWEST NEBRASKA

CITY           SKY/WX    TMP DP  RH WIND       PRES   REMARKS
NORTH PLATTE   CLEAR     41  32  70 NW16G23   30.17R
IMPERIAL       CLEAR     42  33  70 NW17      30.18R
LEXINGTON      CLEAR     46  33  59 NW22G30   30.10R
MCCOOK         CLEAR     43  32  65 NW17      30.13R
OGALLALA       CLEAR     39  32  75 NW14      30.21R WCI  31
$$

NEZ005>010-023>029-035>040-094-290600-
NORTH CENTRAL NEBRASKA

CITY           SKY/WX    TMP DP  RH WIND       PRES   REMARKS
VALENTINE      CLOUDY    36  29  75 N29G44    30.20R WCI  23
AINSWORTH      CLOUDY    35  29  81 NW26G39   30.18R WCI  22
BROKEN BOW     CLOUDY    41  32  70 N37G46    30.12R
O`NEILL        CLOUDY    36  31  85 NW32G44   30.10R WCI  22
ORD            CLOUDY    39  31  72 N31G41    30.08R WCI  27
THEDFORD       CLOUDY    37  32  79 N26G36    30.19R WCI  26
$$

NEZ041-046>049-061>064-073>077-083>087-290600-
SOUTH CENTRAL NEBRASKA

CITY           SKY/WX    TMP DP  RH WIND       PRES   REMARKS
GRAND ISLAND   MOCLDY    46  34  62 N29G41    30.01R
AURORA         CLOUDY    47  34  60 N22G30    29.99R
HASTINGS       PTCLDY    47  32  56 N15       30.00R
HEBRON         MOCLDY    52  31  44 NW18G26   29.96R
HOLDREGE       CLEAR     45  31  58 NW15      30.06R
KEARNEY *      CLEAR     46  30  53 NW28G37   30.04R
YORK           CLOUDY    46  36  66 N24G37    29.95R
$$

NEZ011>018-030>034-042>045-290600-
NORTHEAST NEBRASKA

CITY           SKY/WX    TMP DP  RH WIND       PRES   REMARKS
NORFOLK        CLOUDY    38  32  79 NW29G43   30.00R WCI  26
ALBION         CLOUDY    39  31  73 NW37G43   30.02R WCI  26
BLAIR          CLOUDY    44  37  74 NW29G41   29.90R
COLUMBUS *     CLOUDY    43  30  61 NW30G46   29.99R
FREMONT        CLOUDY    44  37  76 NW32G40   29.96R
TEKAMAH        CLOUDY    43  36  76 N28G37    29.93R
WAYNE          CLOUDY    36  33  90 N30G37    30.00R WCI  22
$$

NEZ050>053-065>068-078-088>093-290600-
SOUTHEAST NEBRASKA

CITY           SKY/WX    TMP DP  RH WIND       PRES   REMARKS
LINCOLN        MOCLDY    49  35  58 N21       29.92R
OMAHA EPPLEY   CLOUDY    45  36  70 N32G45    29.89R
BEATRICE       MOCLDY    51  34  53 N22G37    29.92R
FALLS CITY     PTCLDY    49  36  61 NW17G24   29.86R
NEBRASKA CITY  PTCLDY    46  34  61 N31G41    29.88R
PLATTSMOUTH    CLOUDY    46  36  69 NW29G35   29.88R
$$

NEZ044-045-051>053-067-290600-
OMAHA AREA

CITY           SKY/WX    TMP DP  RH WIND       PRES   REMARKS
OMAHA EPPLEY   CLOUDY    45  36  70 N32G45    29.89R
BLAIR          CLOUDY    44  37  74 NW29G41   29.90R
FREMONT        CLOUDY    44  37  76 NW32G40   29.96R
MILLARD        CLOUDY    47  39  73 NW16G28   29.91R
OFFUTT AFB     CLOUDY    46  37  71 NW26G43   29.88R
PLATTSMOUTH    CLOUDY    46  36  69 NW29G35   29.88R
WAHOO          MOCLDY    45  36  69 N32G43    29.93R
$$



USA.gov is the U.S. government's official web portal to all federal, state and local government web resources and services.